Kosmos-1081

operational
NORAD ID: 11296 Int'l Des: 1979-024 Owner: GUKOSR Country: SU
LEOCIRCULAR

关于 Kosmos-1081

正在加载描述...

实时位置

正在加载3D地球...

即将过境

高度历史

Altitude vs Time

uPlot chart will show altitude changes over time

两行轨道根数

1 11296U 79024A 26062.60863865 -.00000010 00000-0 39299-4 0 9997
2 11296 74.0349 166.9226 0039882 228.8541 240.6852 12.57291352155656
Epoch: Mar 3, 2026 • Age: 32 hours

当前状态

高度 1413.4 km
速度 7.17 km/s
星下点 -13.36°S, 64.09°E
发射日期 Mar 15, 1979
运行时间 46.9 years
类型 other

技术详情

分类 Payload
质量 60.00 kg
干质量 60.00 kg
总质量 60.00 kg
长度 0.80 m
直径 0.80 m
跨度 0.80 m
形状 Poly
制造商 NPOPM
平台类型 Strela-1 11F625
阶段状态 In Orbit
所有者/国家 GUKOSR/SU

大型星座

Loading constellations...